Temp
-8 -8 -8 -8 -8 -8 -8 -8 -8 -8 -8 -8 -8 -8 -8 -8 -8 -8 -8 -9 -9 -9 -9 -9 -8 -8 -8 -8 -8 -8 -8 -8 -7 -7 -7 -7 -7 -7 -7 -7 -7 -7 -7 -7 -7 -7 -7 -7 -6 -6 -6 -6 -6 -6 -7 -7 -7 -7 -7 -6 -6 -6 -6 -6 -6 -6 -6 -6 -6 -6 -6 -6 -6 -6
-8 -8 -8 -8 -8 -8 -8 -8 -8 -8 -8 -8 -8 -8 -8 -7 -8 -8 -8 -9 -9 -8 -8 -8 -8 -8 -8 -8 -8 -8 -8 -8 -7 -7 -7 -7 -7 -7 -7 -7 -7 -7 -7 -7 -6 -6 -6 -6 -6 -6 -6 -6 -6 -6 -6 -6 -7 -7 -7 -7 -6 -6 -6 -6 -6 -6 -6 -5 -5 -6 -6 -6 -6 -6
-8 -8 -8 -8 -8 -8 -8 -8 -8 -8 -8 -8 -8 -8 -8 -7 -7 -8 -8 -8 -8 -8 -8 -8 -8 -8 -8 -8 -8 -8 -8 -8 -7 -7 -7 -7 -7 -7 -7 -7 -7 -7 -6 -6 -6 -6 -6 -6 -6 -6 -6 -6 -6 -6 -6 -6 -7 -7 -6 -6 -6 -5 -5 -6 -6 -6 -6 -6 -5 -6 -6 -6 -6 -6
-8 -8 -8 -8 -8 -8 -8 -8 -8 -8 -7 -7 -8 -8 -8 -7 -7 -7 -7 -8 -8 -8 -8 -8 -8 -8 -7 -7 -7 -7 -7 -7 -7 -7 -7 -7 -7 -7 -7 -7 -7 -7 -6 -6 -6 -6 -6 -6 -6 -6 -6 -6 -6 -6 -6 -6 -6 -6 -6 -6 -6 -5 -5 -5 -6 -6 -6 -6 -5 -6 -6 -6 -6 -6
-8 -8 -8 -8 -8 -8 -8 -8 -8 -8 -7 -7 -8 -8 -8 -7 -7 -7 -8 -8 -9 -8 -8 -8 -8 -7 -7 -7 -7 -7 -7 -7 -7 -7 -7 -7 -7 -7 -7 -7 -7 -7 -7 -6 -6 -6 -6 -6 -6 -6 -6 -6 -6 -6 -6 -6 -6 -6 -6 -6 -6 -6 -5 -5 -5 -6 -6 -5 -5 -6 -6 -6 -6 -6
-8 -7 -7 -7 -8 -8 -8 -8 -8 -8 -8 -7 -8 -8 -8 -8 -7 -8 -8 -9 -9 -9 -8 -8 -8 -7 -7 -7 -7 -7 -7 -7 -7 -7 -7 -7 -7 -7 -7 -7 -7 -7 -7 -6 -6 -6 -6 -6 -6 -6 -6 -6 -6 -6 -6 -6 -6 -6 -6 -6 -6 -6 -5 -5 -5 -5 -5 -5 -6 -6 -6 -6 -6 -6
-8 -8 -7 -7 -8 -8 -8 -7 -8 -8 -8 -7 -8 -8 -8 -8 -8 -8 -8 -8 -9 -9 -8 -8 -8 -8 -7 -8 -8 -7 -7 -7 -7 -7 -7 -7 -7 -7 -7 -7 -7 -7 -7 -6 -6 -6 -6 -6 -6 -6 -6 -6 -5 -5 -6 -6 -6 -6 -6 -6 -6 -6 -6 -6 -5 -5 -5 -6 -6 -6 -6 -6 -6 -6
-8 -8 -8 -8 -8 -8 -8 -8 -8 -8 -8 -8 -8 -8 -8 -8 -8 -8 -8 -8 -8 -8 -8 -8 -8 -8 -8 -8 -8 -7 -7 -7 -7 -7 -6 -6 -7 -7 -7 -7 -7 -7 -7 -6 -6 -6 -6 -6 -6 -6 -6 -6 -5 -6 -6 -6 -6 -6 -6 -6 -6 -6 -6 -5 -5 -5 -5 -5 -6 -6 -6 -7 -6 -6
-8 -8 -8 -8 -8 -7 -8 -8 -8 -8 -8 -8 -8 -8 -8 -8 -8 -8 -8 -8 -8 -8 -9 -9 -9 -8 -8 -8 -8 -7 -7 -7 -7 -7 -6 -6 -6 -7 -7 -7 -7 -6 -6 -6 -6 -6 -6 -6 -6 -6 -6 -6 -6 -6 -6 -6 -6 -6 -6 -6 -6 -6 -6 -5 -5 -5 -5 -6 -6 -6 -6 -6 -6 -6
-8 -8 -8 -8 -8 -7 -7 -7 -7 -8 -8 -7 -8 -8 -8 -8 -8 -8 -8 -8 -8 -8 -9 -9 -9 -8 -8 -8 -8 -8 -7 -7 -7 -7 -6 -6 -6 -6 -7 -7 -7 -6 -6 -6 -6 -6 -6 -6 -6 -6 -6 -6 -6 -6 -6 -6 -6 -6 -6 -6 -6 -6 -6 -6 -6 -6 -6 -6 -6 -6 -6 -6 -6 -6
-8 -8 -8 -8 -7 -7 -7 -7 -7 -7 -7 -7 -7 -8 -8 -8 -8 -8 -8 -8 -8 -8 -8 -8 -8 -8 -8 -7 -8 -8 -8 -7 -7 -7 -7 -7 -6 -6 -7 -7 -7 -6 -6 -6 -6 -6 -6 -6 -6 -6 -6 -6 -6 -6 -6 -6 -6 -6 -6 -6 -6 -6 -6 -6 -6 -6 -6 -6 -6 -6 -6 -6 -6 -6
-8 -8 -8 -7 -7 -7 -7 -7 -7 -7 -7 -7 -7 -7 -7 -8 -8 -8 -8 -8 -8 -8 -8 -8 -8 -8 -7 -7 -8 -8 -8 -7 -7 -7 -7 -7 -7 -6 -6 -7 -7 -6 -6 -6 -6 -6 -6 -6 -6 -6 -6 -6 -6 -6 -6 -6 -6 -6 -6 -6 -6 -6 -6 -6 -6 -6 -6 -6 -6 -7 -7 -7 -7 -7
-8 -8 -8 -7 -7 -7 -7 -7 -7 -7 -7 -7 -7 -7 -7 -7 -7 -8 -8 -8 -8 -8 -8 -7 -7 -7 -7 -8 -8 -8 -8 -7 -7 -7 -7 -7 -7 -6 -6 -7 -7 -7 -7 -6 -6 -6 -7 -6 -6 -6 -6 -6 -6 -6 -6 -6 -6 -6 -6 -6 -6 -6 -6 -6 -6 -6 -6 -6 -6 -7 -7 -7 -7 -7
-8 -7 -7 -7 -7 -7 -6 -6 -7 -7 -7 -7 -7 -7 -7 -7 -7 -8 -8 -8 -8 -8 -8 -7 -7 -7 -7 -8 -8 -7 -7 -7 -7 -6 -6 -7 -6 -6 -6 -7 -7 -7 -7 -7 -7 -7 -7 -7 -6 -6 -7 -7 -7 -7 -6 -6 -6 -6 -6 -6 -6 -6 -6 -6 -6 -6 -6 -6 -7 -7 -7 -7 -7 -7
-8 -7 -7 -7 -7 -6 -6 -6 -6 -6 -7 -7 -7 -7 -7 -7 -7 -7 -8 -8 -8 -8 -7 -7 -7 -7 -8 -8 -7 -7 -7 -7 -6 -6 -6 -6 -6 -6 -6 -7 -7 -7 -7 -7 -7 -7 -7 -7 -6 -7 -7 -7 -7 -7 -7 -7 -6 -6 -6 -6 -6 -6 -6 -6 -6 -6 -6 -7 -7 -7 -7 -7 -7 -7
-8 -7 -7 -7 -7 -6 -6 -6 -6 -6 -7 -7 -7 -7 -7 -7 -7 -7 -7 -8 -8 -8 -8 -7 -7 -8 -8 -8 -7 -7 -7 -7 -6 -6 -6 -6 -6 -6 -6 -6 -7 -7 -7 -7 -7 -7 -7 -7 -7 -7 -7 -7 -7 -7 -7 -7 -7 -6 -6 -6 -6 -6 -6 -6 -6 -6 -6 -7 -7 -7 -7 -7 -7 -7
-8 -7 -7 -7 -7 -7 -6 -6 -6 -6 -6 -6 -7 -7 -7 -7 -7 -7 -7 -7 -7 -8 -8 -8 -8 -8 -8 -8 -7 -7 -7 -6 -6 -6 -6 -6 -6 -6 -6 -6 -6 -6 -7 -7 -7 -7 -6 -7 -7 -7 -7 -7 -7 -7 -7 -7 -7 -6 -6 -6 -6 -6 -7 -6 -6 -6 -6 -7 -7 -7 -7 -7 -7 -7
-8 -8 -7 -7 -7 -7 -6 -6 -6 -6 -6 -6 -6 -7 -7 -7 -7 -7 -7 -7 -7 -8 -8 -8 -8 -8 -7 -7 -7 -7 -6 -6 -6 -7 -6 -6 -6 -6 -6 -6 -6 -6 -6 -7 -7 -6 -6 -6 -7 -7 -7 -7 -7 -7 -7 -7 -7 -7 -7 -7 -7 -7 -7 -7 -6 -7 -7 -7 -7 -7 -7 -7 -7 -7
-9 -8 -8 -7 -7 -7 -7 -6 -6 -6 -6 -6 -6 -7 -7 -7 -7 -7 -7 -7 -8 -8 -8 -8 -8 -8 -7 -7 -7 -7 -6 -6 -6 -6 -6 -6 -6 -7 -6 -7 -7 -6 -6 -7 -7 -6 -6 -6 -7 -7 -7 -7 -7 -7 -7 -7 -7 -7 -7 -7 -7 -7 -7 -7 -7 -7 -7 -7 -7 -7 -7 -7 -7 -7
-9 -8 -8 -8 -7 -7 -7 -7 -6 -6 -6 -6 -7 -7 -7 -7 -7 -8 -8 -8 -8 -8 -8 -8 -8 -8 -8 -8 -7 -7 -6 -6 -6 -7 -7 -7 -7 -7 -7 -7 -7 -7 -7 -7 -7 -7 -6 -6 -7 -7 -7 -7 -7 -7 -7 -7 -7 -7 -7 -7 -7 -7 -7 -7 -7 -7 -7 -7 -7 -7 -7 -7 -7 -7
-8 -8 -8 -8 -8 -7 -7 -7 -6 -6 -6 -7 -7 -7 -8 -8 -8 -8 -8 -8 -8 -8 -8 -8 -8 -8 -8 -8 -7 -7 -7 -6 -6 -7 -7 -7 -7 -7 -7 -7 -7 -7 -7 -7 -7 -7 -7 -7 -7 -7 -7 -7 -7 -7 -7 -7 -7 -7 -7 -7 -7 -7 -7 -7 -7 -7 -7 -7 -7 -7 -7 -7 -7 -7
-8 -8 -8 -8 -8 -8 -7 -7 -7 -7 -7 -7 -8 -8 -8 -8 -8 -8 -8 -8 -7 -8 -8 -8 -8 -8 -8 -8 -8 -7 -7 -7 -6 -7 -8 -8 -7 -7 -7 -8 -8 -8 -7 -7 -7 -7 -7 -7 -7 -7 -7 -7 -8 -7 -8 -8 -8 -8 -7 -7 -7 -7 -7 -7 -7 -7 -7 -7 -7 -7 -7 -7 -7 -7
-8 -8 -8 -8 -8 -8 -8 -8 -7 -7 -8 -8 -8 -8 -8 -8 -8 -8 -8 -7 -7 -8 -8 -8 -8 -8 -8 -8 -7 -7 -7 -7 -7 -7 -8 -8 -8 -8 -8 -8 -8 -8 -8 -7 -7 -7 -7 -7 -8 -8 -7 -8 -8 -8 -8 -8 -8 -7 -7 -7 -7 -7 -7 -7 -7 -7 -7 -7 -7 -7 -7 -7 -7 -7
-9 -9 -9 -8 -8 -8 -8 -8 -8 -8 -8 -8 -8 -8 -8 -8 -8 -8 -8 -8 -7 -8 -8 -8 -8 -8 -8 -8 -7 -7 -8 -7 -7 -8 -8 -8 -8 -8 -8 -8 -8 -8 -8 -7 -8 -8 -8 -8 -8 -8 -8 -8 -8 -8 -8 -8 -8 -7 -7 -7 -7 -7 -7 -7 -7 -7 -7 -7 -7 -7 -7 -7 -7 -7
-9 -9 -9 -8 -8 -8 -8 -8 -8 -8 -8 -8 -8 -8 -8 -8 -8 -8 -8 -8 -8 -8 -8 -8 -8 -8 -8 -8 -8 -8 -8 -8 -8 -8 -8 -8 -8 -8 -8 -8 -8 -8 -8 -8 -8 -8 -8 -8 -8 -8 -8 -8 -8 -8 -8 -8 -8 -8 -8 -8 -8 -8 -8 -8 -7 -7 -7 -7 -7 -7 -7 -7 -7 -8
-9 -9 -9 -9 -8 -8 -8 -8 -8 -8 -8 -8 -8 -8 -8 -8 -8 -8 -8 -8 -8 -8 -8 -8 -8 -8 -8 -8 -8 -8 -8 -8 -8 -8 -8 -8 -8 -8 -8 -9 -9 -8 -8 -8 -8 -8 -8 -8 -8 -8 -8 -8 -8 -8 -8 -8 -8 -8 -8 -8 -8 -8 -8 -8 -8 -8 -7 -7 -7 -8 -8 -8 -8 -8
-9 -9 -9 -9 -9 -9 -9 -9 -9 -9 -8 -8 -8 -8 -8 -8 -8 -8 -8 -8 -8 -9 -8 -8 -8 -8 -8 -8 -9 -9 -9 -8 -8 -8 -8 -9 -9 -9 -9 -9 -9 -9 -8 -8 -8 -8 -8 -8 -8 -8 -8 -8 -8 -8 -8 -8 -8 -8 -8 -8 -8 -8 -8 -8 -8 -8 -8 -8 -8 -8 -8 -8 -8 -8
-10 -10 -9 -9 -9 -9 -9 -9 -9 -9 -9 -9 -9 -8 -8 -8 -8 -8 -8 -9 -9 -9 -9 -8 -8 -8 -8 -9 -9 -9 -9 -9 -8 -8 -9 -9 -9 -9 -9 -9 -9 -9 -9 -8 -8 -9 -9 -8 -8 -9 -8 -8 -8 -8 -8 -8 -8 -8 -8 -8 -8 -8 -8 -8 -8 -8 -8 -8 -8 -8 -8 -8 -8 -8
-10 -10 -10 -10 -10 -10 -9 -9 -9 -9 -9 -9 -9 -9 -9 -9 -8 -8 -9 -9 -9 -9 -9 -9 -9 -9 -9 -9 -9 -9 -9 -9 -9 -9 -9 -9 -9 -9 -9 -9 -9 -9 -9 -8 -8 -9 -9 -8 -8 -8 -9 -9 -9 -9 -9 -9 -9 -8 -8 -8 -8 -8 -8 -8 -8 -8 -8 -8 -8 -8 -8 -9 -9 -9
-10 -10 -10 -10 -10 -10 -10 -10 -10 -10 -10 -10 -9 -9 -9 -9 -9 -9 -9 -9 -10 -10 -10 -9 -9 -9 -9 -9 -9 -9 -9 -9 -9 -9 -9 -9 -9 -9 -9 -9 -9 -9 -9 -8 -8 -9 -9 -8 -9 -9 -9 -9 -9 -9 -9 -9 -9 -9 -9 -9 -9 -9 -9 -9 -9 -8 -8 -8 -9 -9 -9 -9 -9 -9
-10 -11 -10 -10 -10 -10 -10 -10 -10 -10 -10 -10 -10 -10 -10 -10 -10 -10 -10 -10 -10 -10 -10 -10 -9 -10 -9 -9 -10 -10 -9 -9 -9 -9 -10 -10 -9 -9 -9 -9 -9 -9 -9 -9 -8 -9 -9 -9 -9 -9 -9 -9 -9 -9 -9 -9 -9 -9 -9 -9 -9 -9 -9 -9 -9 -9 -9 -9 -9 -9 -9 -9 -9 -10
-11 -11 -11 -11 -10 -10 -10 -10 -10 -10 -10 -10 -10 -10 -10 -10 -10 -10 -10 -10 -10 -10 -10 -10 -10 -10 -10 -10 -10 -10 -10 -9 -9 -9 -10 -10 -9 -9 -9 -9 -9 -9 -9 -9 -9 -9 -9 -9 -9 -9 -9 -9 -9 -9 -9 -9 -9 -9 -9 -9 -9 -9 -9 -9 -9 -9 -9 -10 -10 -10 -10 -10 -10 -10
-11 -11 -11 -11 -10 -10 -10 -10 -10 -10 -10 -10 -10 -10 -10 -10 -10 -10 -10 -10 -10 -10 -10 -10 -10 -10 -10 -10 -10 -9 -9 -9 -9 -9 -10 -10 -9 -9 -9 -9 -9 -9 -9 -9 -9 -9 -9 -9 -9 -9 -9 -9 -9 -9 -9 -9 -9 -9 -9 -9 -9 -9 -10 -10 -10 -10 -10 -10 -10 -10 -10 -10 -10 -10
-11 -11 -11 -11 -11 -11 -11 -10 -10 -10 -10 -10 -10 -10 -10 -10 -10 -10 -10 -10 -10 -10 -10 -10 -10 -10 -10 -10 -10 -10 -10 -10 -10 -10 -10 -10 -10 -9 -9 -10 -10 -10 -9 -10 -9 -9 -9 -9 -9 -9 -9 -9 -9 -9 -10 -10 -9 -9 -9 -10 -10 -10 -10 -10 -11 -11 -11 -10 -10 -10 -10 -10 -10 -10
-12 -12 -12 -11 -11 -11 -11 -11 -11 -10 -10 -10 -10 -10 -10 -10 -10 -10 -10 -10 -10 -10 -10 -10 -10 -10 -10 -10 -10 -10 -10 -10 -10 -10 -10 -10 -10 -10 -10 -10 -10 -10 -10 -10 -9 -9 -9 -10 -10 -10 -10 -10 -10 -10 -10 -10 -10 -10 -10 -10 -11 -11 -11 -11 -11 -11 -11 -11 -11 -11 -11 -11 -11 -10
-13 -13 -12 -12 -12 -12 -12 -12 -12 -11 -11 -11 -11 -11 -11 -11 -11 -11 -11 -11 -11 -11 -11 -11 -10 -10 -10 -10 -10 -10 -10 -10 -10 -10 -10 -10 -10 -10 -10 -10 -10 -10 -10 -10 -9 -9 -9 -10 -10 -10 -10 -10 -10 -10 -10 -10 -10 -11 -11 -11 -11 -11 -11 -12 -11 -11 -11 -11 -11 -11 -11 -11 -11 -11
-13 -13 -13 -13 -13 -13 -13 -13 -13 -13 -13 -12 -12 -12 -12 -11 -11 -11 -11 -11 -11 -11 -11 -11 -11 -11 -11 -11 -11 -10 -10 -10 -10 -10 -10 -10 -10 -10 -10 -10 -10 -10 -10 -10 -10 -10 -10 -10 -10 -10 -10 -10 -10 -10 -11 -11 -11 -11 -11 -12 -12 -12 -12 -12 -12 -12 -11 -11 -11 -11 -11 -11 -11 -11
-14 -13 -13 -13 -13 -13 -13 -13 -13 -13 -13 -13 -13 -13 -12 -12 -12 -12 -12 -12 -12 -12 -12 -12 -12 -12 -11 -11 -11 -11 -11 -11 -11 -11 -11 -11 -11 -11 -10 -11 -11 -11 -10 -10 -10 -10 -10 -10 -10 -10 -10 -10 -10 -11 -11 -11 -11 -11 -12 -12 -12 -12 -12 -12 -12 -12 -11 -11 -11 -11 -11 -11 -11 -11
-14 -14 -14 -14 -13 -13 -13 -13 -13 -13 -13 -13 -13 -13 -13 -12 -12 -12 -12 -12 -12 -12 -12 -12 -12 -12 -12 -12 -11 -11 -11 -11 -11 -11 -11 -11 -11 -11 -11 -11 -11 -11 -11 -11 -10 -10 -10 -10 -10 -10 -11 -11 -11 -11 -11 -11 -11 -11 -11 -11 -11 -11 -11 -11 -11 -11 -11 -11 -11 -11 -11 -11 -11 -11
-14 -14 -14 -14 -14 -14 -13 -13 -13 -13 -13 -13 -13 -13 -13 -13 -13 -12 -12 -12 -12 -12 -12 -12 -12 -12 -12 -12 -12 -12 -12 -11 -11 -11 -11 -11 -11 -11 -11 -11 -11 -11 -11 -11 -11 -10 -10 -10 -10 -10 -11 -11 -11 -11 -11 -11 -11 -11 -11 -11 -11 -11 -11 -11 -11 -11 -11 -11 -11 -11 -11 -11 -11 -11
-14 -14 -14 -14 -14 -14 -14 -14 -14 -13 -13 -13 -13 -13 -13 -13 -13 -13 -12 -12 -12 -12 -12 -12 -12 -12 -12 -12 -12 -12 -12 -12 -12 -12 -12 -12 -11 -11 -11 -11 -11 -11 -11 -11 -11 -10 -10 -10 -11 -11 -11 -11 -11 -11 -11 -11 -11 -11 -11 -11 -11 -11 -11 -11 -11 -11 -11 -11 -11 -11 -11 -11 -11 -11
-14 -14 -14 -14 -14 -14 -14 -14 -14 -14 -13 -13 -13 -13 -13 -13 -13 -13 -12 -12 -12 -12 -12 -12 -12 -12 -12 -12 -12 -12 -12 -12 -12 -12 -12 -12 -12 -11 -11 -11 -11 -11 -11 -11 -11 -11 -11 -11 -11 -11 -11 -11 -11 -11 -11 -11 -11 -11 -11 -11 -11 -11 -11 -11 -11 -11 -11 -11 -11 -11 -11 -11 -11 -11
-14 -14 -14 -14 -14 -14 -14 -14 -14 -14 -14 -13 -13 -13 -13 -13 -13 -13 -13 -13 -13 -13 -12 -12 -12 -12 -12 -12 -12 -12 -12 -12 -12 -12 -12 -12 -12 -12 -12 -12 -12 -12 -11 -11 -11 -11 -11 -11 -11 -11 -11 -11 -11 -11 -11 -12 -12 -11 -11 -11 -11 -11 -11 -11 -11 -11 -12 -12 -12 -11 -11 -11 -11 -11
-14 -14 -14 -14 -14 -14 -14 -14 -14 -14 -14 -14 -14 -14 -14 -13 -13 -13 -13 -13 -13 -13 -13 -13 -13 -13 -13 -13 -13 -13 -13 -13 -12 -12 -12 -12 -12 -12 -12 -12 -12 -12 -12 -12 -11 -11 -11 -11 -11 -11 -11 -11 -11 -12 -12 -12 -12 -12 -12 -12 -11 -11 -11 -11 -11 -12 -12 -12 -12 -12 -12 -12 -11 -11
-15 -14 -14 -14 -14 -14 -14 -14 -14 -14 -14 -14 -14 -14 -14 -14 -14 -14 -13 -13 -13 -13 -13 -13 -13 -13 -13 -13 -13 -13 -13 -13 -13 -13 -13 -12 -12 -12 -12 -12 -12 -12 -12 -12 -12 -12 -11 -11 -11 -11 -11 -11 -12 -12 -12 -12 -12 -12 -12 -12 -12 -12 -12 -12 -12 -12 -12 -12 -12 -12 -12 -12 -12 -12
Height
5814 5816 5820 5823 5826 5829 5831 5834 5837 5839 5840 5841 5842 5845 5847 5849 5851 5852 5853 5855 5855 5855 5857 5859 5860 5862 5864 5865 5867 5868 5869 5869 5870 5871 5872 5873 5873 5874 5875 5876 5877 5879 5879 5881 5882 5882 5884 5885 5886 5888 5889 5890 5891 5892 5892 5892 5893 5893 5893 5894 5894 5895 5895 5896 5896 5897 5897 5898 5899 5899 5900 5900 5900 5900
5809 5811 5815 5818 5821 5824 5826 5830 5833 5835 5836 5837 5839 5841 5843 5845 5847 5849 5851 5852 5852 5853 5855 5856 5857 5859 5860 5862 5863 5864 5865 5865 5866 5867 5867 5868 5869 5870 5872 5873 5874 5875 5876 5876 5877 5878 5880 5881 5882 5884 5885 5886 5887 5888 5889 5889 5889 5890 5890 5890 5890 5891 5892 5893 5893 5894 5894 5895 5896 5896 5897 5897 5897 5897
5804 5806 5809 5812 5815 5818 5821 5825 5828 5830 5832 5833 5835 5838 5840 5842 5844 5846 5848 5849 5850 5850 5852 5853 5854 5855 5857 5858 5859 5860 5860 5861 5862 5863 5864 5865 5866 5867 5868 5869 5870 5871 5871 5872 5873 5874 5876 5877 5879 5880 5881 5882 5883 5884 5885 5886 5886 5886 5887 5887 5887 5888 5889 5890 5890 5891 5891 5892 5893 5893 5893 5893 5894 5895
5799 5801 5804 5807 5810 5813 5816 5819 5822 5825 5828 5829 5831 5833 5835 5837 5839 5841 5844 5847 5846 5846 5847 5849 5851 5852 5853 5855 5855 5856 5857 5858 5859 5859 5860 5862 5863 5864 5865 5865 5866 5867 5868 5868 5869 5871 5872 5873 5875 5876 5877 5878 5879 5880 5880 5881 5882 5882 5883 5883 5884 5885 5886 5887 5887 5888 5889 5889 5890 5890 5890 5890 5891 5892
5794 5795 5798 5802 5805 5808 5810 5813 5817 5821 5823 5825 5826 5829 5831 5833 5835 5836 5840 5843 5842 5841 5843 5845 5847 5849 5850 5851 5852 5853 5854 5854 5855 5856 5857 5858 5859 5860 5861 5862 5863 5864 5864 5865 5866 5867 5868 5870 5870 5871 5872 5873 5874 5875 5876 5877 5878 5879 5879 5880 5881 5881 5882 5883 5884 5885 5885 5886 5886 5887 5887 5888 5888 5888
5788 5790 5792 5796 5800 5802 5805 5808 5812 5816 5819 5820 5822 5825 5828 5830 5831 5832 5835 5837 5837 5837 5839 5841 5843 5845 5847 5848 5848 5849 5850 5851 5851 5853 5854 5855 5856 5857 5858 5859 5859 5860 5861 5862 5863 5864 5865 5866 5866 5867 5868 5869 5870 5871 5871 5872 5874 5875 5876 5877 5878 5878 5879 5880 5881 5881 5881 5882 5882 5883 5883 5884 5884 5885
5783 5784 5786 5789 5793 5797 5800 5803 5807 5811 5813 5815 5818 5821 5824 5826 5826 5828 5830 5832 5834 5834 5835 5836 5839 5841 5843 5844 5844 5845 5846 5847 5848 5849 5850 5851 5853 5854 5855 5856 5856 5856 5858 5859 5860 5860 5861 5862 5863 5863 5864 5864 5865 5866 5867 5869 5870 5871 5873 5874 5874 5875 5876 5877 5877 5877 5877 5878 5879 5879 5879 5879 5880 5881
5778 5779 5781 5784 5787 5790 5794 5798 5802 5805 5808 5810 5814 5816 5819 5821 5823 5824 5826 5828 5830 5831 5831 5833 5835 5837 5839 5840 5841 5842 5843 5844 5845 5846 5846 5847 5849 5850 5851 5852 5852 5853 5854 5855 5856 5857 5858 5859 5859 5859 5860 5860 5861 5862 5863 5865 5866 5867 5868 5870 5870 5872 5872 5873 5873 5874 5874 5873 5874 5875 5876 5876 5877 5877
5772 5775 5777 5780 5781 5784 5788 5793 5797 5799 5802 5806 5809 5811 5814 5816 5818 5820 5822 5824 5825 5826 5828 5829 5830 5832 5835 5836 5837 5839 5840 5841 5841 5842 5843 5844 5845 5846 5848 5849 5849 5850 5851 5852 5853 5854 5855 5856 5856 5856 5856 5856 5857 5858 5859 5861 5862 5863 5864 5865 5867 5868 5869 5869 5870 5870 5870 5869 5870 5871 5871 5872 5872 5873
5766 5769 5773 5775 5776 5779 5783 5788 5792 5794 5797 5800 5803 5806 5809 5811 5814 5816 5817 5819 5821 5823 5825 5827 5828 5830 5832 5833 5834 5836 5837 5838 5838 5838 5839 5839 5840 5842 5843 5844 5845 5846 5847 5848 5849 5850 5851 5852 5852 5852 5853 5853 5854 5854 5855 5857 5858 5859 5860 5862 5863 5864 5865 5865 5866 5866 5866 5867 5867 5867 5867 5868 5869 5869
5760 5763 5767 5770 5772 5775 5778 5782 5785 5789 5792 5794 5798 5802 5805 5807 5810 5812 5813 5814 5817 5820 5823 5825 5826 5827 5829 5831 5832 5833 5834 5835 5835 5834 5835 5835 5836 5837 5838 5840 5841 5842 5843 5844 5845 5846 5847 5848 5848 5849 5849 5850 5850 5851 5852 5853 5854 5855 5857 5858 5859 5860 5861 5862 5862 5863 5864 5864 5864 5864 5864 5864 5865 5866
5754 5757 5761 5764 5767 5770 5774 5777 5780 5783 5786 5789 5793 5796 5800 5803 5805 5807 5808 5810 5812 5816 5819 5821 5823 5824 5826 5828 5829 5830 5830 5831 5831 5831 5831 5832 5832 5833 5834 5835 5837 5839 5839 5840 5841 5842 5843 5844 5845 5845 5846 5847 5848 5848 5849 5850 5851 5852 5853 5855 5856 5856 5857 5858 5858 5860 5861 5861 5860 5860 5861 5861 5863 5864
5748 5752 5756 5759 5762 5765 5769 5773 5775 5778 5782 5784 5788 5792 5795 5798 5801 5802 5803 5805 5808 5811 5814 5817 5819 5821 5823 5825 5826 5827 5827 5827 5828 5828 5828 5828 5828 5829 5831 5832 5833 5835 5836 5837 5838 5839 5839 5840 5841 5842 5843 5844 5845 5845 5847 5848 5848 5849 5850 5851 5852 5853 5853 5853 5855 5856 5857 5857 5856 5857 5858 5858 5859 5860
5743 5747 5751 5754 5757 5760 5764 5768 5772 5774 5777 5780 5784 5787 5789 5792 5795 5797 5799 5802 5805 5807 5809 5812 5814 5817 5819 5821 5821 5822 5823 5824 5824 5824 5824 5824 5824 5826 5827 5828 5829 5831 5833 5834 5835 5836 5836 5837 5837 5837 5839 5840 5841 5842 5844 5845 5845 5846 5847 5848 5848 5849 5849 5850 5852 5852 5852 5853 5854 5854 5855 5855 5855 5856
5737 5741 5745 5748 5752 5755 5759 5764 5768 5770 5773 5776 5779 5782 5784 5787 5790 5792 5795 5798 5800 5803 5805 5808 5810 5813 5815 5816 5817 5818 5819 5820 5820 5820 5820 5820 5820 5821 5822 5823 5825 5828 5830 5831 5832 5832 5833 5834 5834 5834 5834 5835 5837 5838 5841 5842 5842 5843 5844 5844 5844 5845 5846 5847 5848 5849 5849 5849 5850 5851 5851 5852 5852 5852
5732 5735 5739 5743 5747 5751 5755 5759 5763 5765 5767 5770 5773 5776 5779 5782 5784 5787 5790 5793 5796 5798 5801 5803 5807 5809 5810 5811 5812 5814 5814 5815 5815 5816 5816 5817 5816 5817 5818 5820 5822 5824 5826 5827 5828 5828 5830 5830 5831 5831 5831 5832 5833 5835 5837 5838 5838 5839 5840 5840 5840 5841 5842 5844 5845 5846 5846 5846 5847 5848 5848 5848 5849 5849
5728 5731 5735 5738 5742 5745 5748 5752 5756 5759 5761 5764 5768 5770 5773 5776 5780 5783 5785 5787 5790 5793 5796 5799 5802 5804 5805 5806 5807 5808 5810 5810 5811 5811 5812 5813 5813 5813 5814 5816 5818 5820 5821 5823 5824 5825 5826 5827 5827 5828 5828 5829 5829 5831 5833 5834 5834 5835 5836 5837 5837 5838 5839 5840 5841 5842 5843 5843 5844 5844 5845 5845 5845 5845
5725 5727 5730 5734 5737 5740 5743 5746 5750 5753 5756 5759 5762 5764 5767 5771 5775 5778 5780 5782 5785 5788 5791 5795 5797 5798 5799 5801 5802 5803 5805 5806 5806 5807 5808 5809 5809 5810 5811 5813 5815 5816 5817 5818 5819 5820 5822 5823 5824 5825 5825 5825 5826 5827 5829 5830 5831 5832 5832 5833 5834 5834 5835 5836 5837 5838 5839 5840 5840 5841 5841 5841 5841 5841
5722 5724 5727 5730 5732 5735 5738 5741 5745 5748 5751 5754 5757 5760 5763 5766 5768 5771 5774 5777 5780 5783 5785 5789 5791 5792 5794 5796 5797 5798 5800 5801 5802 5803 5804 5805 5805 5805 5807 5808 5810 5811 5813 5814 5815 5816 5818 5819 5820 5821 5822 5822 5822 5823 5824 5826 5827 5828 5829 5829 5830 5830 5831 5832 5833 5834 5835 5836 5836 5837 5837 5837 5838 5838
5720 5723 5725 5726 5728 5731 5733 5737 5740 5743 5746 5749 5752 5755 5759 5760 5761 5765 5768 5771 5775 5777 5779 5782 5785 5787 5789 5791 5792 5793 5795 5796 5798 5799 5800 5800 5800 5801 5803 5804 5805 5807 5808 5809 5810 5812 5813 5814 5815 5817 5818 5818 5819 5819 5820 5821 5823 5824 5825 5826 5827 5827 5828 5829 5830 5830 5831 5832 5832 5832 5833 5833 5834 5834
5717 5720 5722 5724 5726 5727 5729 5732 5735 5738 5740 5744 5748 5750 5753 5754 5756 5759 5763 5766 5769 5772 5774 5777 5779 5782 5784 5786 5787 5788 5790 5792 5793 5794 5795 5796 5796 5797 5799 5800 5801 5803 5804 5804 5805 5807 5808 5809 5810 5812 5813 5814 5815 5815 5817 5818 5819 5820 5821 5823 5824 5824 5825 5826 5826 5827 5827 5827 5828 5828 5829 5829 5830 5830
5714 5716 5718 5721 5722 5724 5726 5728 5730 5732 5736 5740 5743 5745 5747 5749 5750 5753 5756 5760 5763 5766 5769 5772 5774 5776 5779 5781 5782 5783 5785 5787 5788 5789 5791 5793 5793 5794 5795 5795 5797 5798 5799 5800 5801 5802 5804 5804 5805 5806 5808 5809 5810 5811 5813 5814 5815 5816 5818 5819 5820 5821 5821 5822 5822 5823 5823 5824 5824 5824 5824 5825 5825 5825
5713 5714 5715 5716 5718 5720 5721 5723 5724 5727 5731 5734 5736 5739 5742 5744 5745 5746 5750 5753 5757 5760 5763 5766 5769 5771 5774 5776 5777 5779 5781 5783 5784 5785 5787 5789 5789 5790 5791 5792 5792 5793 5795 5796 5797 5798 5799 5800 5801 5802 5804 5805 5806 5807 5809 5810 5811 5813 5814 5815 5816 5817 5817 5818 5818 5819 5819 5820 5820 5820 5820 5820 5821 5821
5709 5710 5711 5712 5713 5715 5716 5718 5720 5723 5726 5728 5730 5733 5737 5738 5740 5742 5745 5748 5750 5753 5757 5761 5764 5767 5769 5771 5773 5775 5777 5778 5780 5781 5783 5784 5784 5785 5787 5788 5789 5790 5791 5793 5794 5794 5795 5796 5797 5799 5800 5801 5803 5804 5805 5806 5808 5809 5810 5811 5812 5812 5813 5814 5814 5815 5815 5816 5816 5816 5816 5817 5817 5817
5704 5705 5707 5708 5710 5711 5713 5715 5717 5719 5721 5723 5725 5728 5731 5734 5736 5739 5742 5744 5746 5749 5753 5756 5759 5762 5764 5766 5768 5770 5772 5774 5776 5777 5778 5779 5779 5780 5782 5783 5784 5786 5787 5788 5789 5790 5791 5793 5794 5795 5796 5797 5799 5800 5801 5802 5803 5804 5805 5806 5807 5808 5809 5810 5810 5811 5812 5812 5812 5813 5813 5813 5813 5813
5703 5703 5704 5706 5708 5710 5712 5713 5714 5716 5718 5720 5722 5724 5727 5730 5733 5736 5739 5741 5743 5745 5748 5752 5754 5757 5759 5761 5764 5766 5767 5769 5771 5773 5774 5774 5775 5776 5777 5778 5780 5782 5783 5784 5785 5786 5788 5789 5790 5790 5792 5793 5794 5795 5796 5798 5799 5800 5800 5802 5802 5803 5804 5806 5806 5807 5808 5808 5809 5809 5809 5809 5809 5809
5700 5701 5702 5704 5706 5708 5709 5711 5712 5714 5715 5718 5720 5722 5725 5728 5731 5734 5737 5738 5739 5742 5744 5747 5749 5752 5754 5757 5759 5761 5762 5764 5766 5768 5770 5770 5771 5772 5773 5775 5777 5779 5780 5780 5781 5781 5782 5784 5785 5786 5787 5789 5789 5791 5792 5793 5795 5795 5796 5797 5798 5798 5800 5801 5802 5803 5804 5804 5804 5805 5805 5805 5805 5806
5698 5698 5700 5701 5703 5705 5707 5708 5709 5711 5713 5715 5717 5720 5722 5725 5728 5731 5734 5735 5736 5737 5739 5742 5744 5747 5750 5753 5754 5756 5758 5759 5761 5763 5765 5766 5767 5768 5770 5771 5773 5774 5774 5774 5775 5776 5777 5779 5781 5782 5783 5784 5785 5786 5788 5789 5790 5791 5792 5792 5793 5794 5795 5796 5797 5798 5799 5799 5800 5800 5800 5801 5801 5802
5696 5696 5697 5698 5700 5701 5703 5705 5707 5708 5710 5712 5714 5717 5719 5722 5724 5727 5729 5731 5732 5733 5735 5737 5740 5743 5746 5748 5749 5751 5753 5754 5756 5758 5760 5761 5762 5764 5766 5767 5768 5769 5769 5769 5770 5772 5774 5776 5777 5778 5779 5780 5781 5782 5783 5785 5787 5787 5788 5788 5789 5790 5791 5791 5792 5794 5794 5795 5795 5796 5796 5797 5798 5798
5695 5695 5696 5696 5697 5699 5700 5702 5704 5705 5707 5709 5711 5714 5716 5718 5720 5723 5725 5727 5729 5730 5731 5734 5737 5739 5741 5743 5744 5746 5748 5750 5752 5753 5755 5756 5758 5760 5762 5763 5763 5764 5765 5765 5767 5769 5771 5772 5774 5775 5775 5776 5777 5778 5779 5781 5782 5783 5784 5784 5785 5786 5786 5787 5788 5789 5790 5791 5791 5792 5792 5793 5793 5794
5693 5694 5694 5695 5696 5697 5699 5700 5702 5703 5705 5706 5708 5710 5712 5714 5716 5719 5721 5722 5724 5725 5728 5730 5732 5734 5736 5738 5740 5742 5744 5746 5747 5749 5750 5752 5753 5755 5757 5758 5758 5759 5761 5762 5764 5766 5767 5769 5770 5771 5772 5772 5773 5773 5774 5776 5777 5778 5779 5780 5781 5781 5782 5783 5784 5784 5785 5786 5787 5787 5788 5788 5788 5789
5691 5692 5693 5694 5695 5696 5697 5698 5700 5701 5703 5704 5705 5707 5709 5710 5712 5714 5715 5717 5719 5721 5723 5725 5727 5729 5731 5733 5735 5738 5740 5741 5743 5744 5745 5747 5748 5750 5752 5754 5755 5756 5757 5759 5760 5762 5763 5765 5766 5767 5767 5767 5767 5768 5769 5770 5772 5772 5773 5774 5775 5776 5777 5778 5778 5779 5780 5781 5782 5782 5782 5782 5783 5783
5688 5689 5691 5692 5693 5693 5694 5695 5697 5698 5700 5702 5703 5704 5706 5707 5708 5710 5711 5713 5715 5718 5720 5721 5723 5725 5727 5728 5730 5732 5734 5736 5738 5739 5741 5742 5744 5746 5748 5749 5750 5752 5753 5754 5755 5757 5758 5759 5760 5761 5761 5762 5763 5764 5764 5765 5766 5767 5767 5768 5769 5770 5771 5772 5773 5774 5775 5776 5777 5777 5777 5778 5778 5778
5686 5687 5688 5689 5690 5691 5691 5692 5693 5695 5696 5698 5700 5701 5703 5704 5705 5706 5708 5709 5711 5714 5716 5717 5719 5721 5722 5724 5726 5727 5729 5731 5732 5734 5735 5736 5738 5740 5742 5743 5745 5746 5748 5749 5750 5751 5752 5754 5755 5755 5756 5757 5758 5759 5759 5760 5761 5761 5762 5763 5764 5765 5766 5767 5768 5768 5769 5770 5771 5772 5773 5773 5773 5773
5685 5685 5686 5687 5687 5688 5688 5689 5690 5691 5693 5694 5696 5697 5699 5700 5702 5703 5704 5706 5707 5709 5711 5713 5714 5716 5718 5719 5721 5723 5724 5726 5727 5728 5729 5731 5732 5734 5736 5737 5739 5741 5742 5743 5744 5745 5747 5748 5749 5749 5750 5751 5752 5753 5754 5755 5756 5757 5758 5759 5761 5761 5762 5762 5763 5763 5764 5765 5765 5766 5767 5767 5767 5767
5683 5684 5684 5685 5685 5685 5686 5687 5687 5688 5689 5690 5691 5693 5694 5696 5698 5699 5700 5702 5703 5705 5707 5708 5710 5711 5712 5714 5715 5717 5719 5720 5721 5723 5724 5726 5727 5728 5730 5732 5733 5735 5735 5737 5738 5739 5740 5741 5742 5743 5743 5745 5746 5747 5748 5750 5751 5752 5753 5755 5756 5757 5758 5758 5759 5759 5759 5759 5760 5760 5761 5762 5761 5762
5682 5682 5683 5683 5683 5683 5684 5685 5685 5686 5687 5688 5688 5689 5690 5692 5693 5695 5697 5698 5699 5701 5702 5703 5705 5706 5708 5709 5710 5712 5713 5715 5716 5717 5718 5720 5721 5723 5724 5726 5728 5728 5729 5730 5732 5733 5734 5735 5735 5736 5737 5738 5740 5741 5743 5745 5746 5747 5748 5750 5751 5752 5753 5753 5754 5754 5754 5755 5755 5755 5756 5756 5756 5756
5681 5681 5681 5682 5682 5682 5682 5683 5684 5684 5685 5686 5687 5687 5688 5689 5690 5691 5693 5694 5696 5697 5698 5700 5701 5702 5704 5705 5706 5707 5709 5710 5711 5712 5713 5715 5716 5718 5719 5720 5722 5722 5724 5725 5726 5727 5729 5729 5730 5731 5733 5734 5736 5738 5739 5740 5741 5742 5743 5744 5744 5745 5747 5747 5748 5749 5749 5750 5750 5750 5750 5751 5751 5751
5680 5680 5680 5680 5680 5681 5681 5682 5682 5683 5683 5684 5685 5686 5686 5687 5688 5689 5690 5692 5693 5695 5696 5697 5698 5699 5700 5701 5703 5704 5705 5706 5707 5708 5710 5711 5712 5713 5714 5716 5717 5718 5719 5720 5721 5723 5724 5725 5726 5728 5729 5730 5732 5733 5734 5735 5736 5736 5737 5738 5739 5740 5741 5742 5743 5744 5744 5745 5745 5745 5745 5746 5746 5746
5679 5678 5678 5678 5679 5679 5680 5680 5681 5681 5682 5682 5683 5684 5684 5684 5685 5687 5688 5690 5691 5691 5692 5693 5694 5695 5697 5698 5699 5700 5701 5703 5704 5705 5706 5707 5708 5709 5711 5712 5713 5714 5715 5715 5717 5718 5719 5721 5722 5723 5724 5725 5727 5728 5729 5729 5730 5731 5733 5734 5734 5735 5736 5737 5737 5738 5738 5739 5740 5740 5740 5741 5741 5741
5677 5677 5677 5677 5677 5678 5678 5678 5679 5679 5680 5680 5681 5682 5682 5683 5683 5684 5686 5687 5687 5688 5689 5690 5691 5692 5693 5695 5696 5697 5698 5699 5700 5701 5702 5703 5704 5705 5707 5708 5709 5709 5710 5711 5712 5714 5715 5716 5718 5718 5719 5720 5722 5723 5724 5724 5725 5726 5727 5729 5729 5730 5730 5730 5731 5732 5732 5733 5734 5734 5734 5735 5735 5735
5674 5674 5675 5675 5675 5676 5676 5676 5677 5677 5677 5678 5678 5679 5680 5680 5681 5682 5682 5683 5684 5685 5686 5687 5687 5688 5689 5690 5691 5692 5693 5694 5696 5697 5698 5699 5700 5701 5702 5703 5704 5705 5706 5707 5708 5709 5710 5711 5713 5713 5714 5715 5716 5717 5718 5719 5720 5721 5721 5722 5723 5724 5724 5725 5726 5726 5727 5727 5728 5728 5728 5729 5729 5729
5668 5668 5669 5670 5671 5672 5673 5673 5674 5674 5674 5675 5675 5676 5676 5677 5677 5678 5679 5679 5680 5680 5681 5682 5683 5684 5684 5685 5686 5688 5689 5690 5691 5692 5693 5694 5695 5696 5697 5699 5700 5700 5701 5702 5703 5704 5705 5706 5707 5708 5709 5710 5711 5712 5713 5714 5715 5715 5716 5716 5717 5718 5719 5720 5720 5721 5721 5721 5721 5722 5722 5723 5723 5723
5663 5663 5664 5665 5666 5667 5667 5668 5668 5669 5669 5670 5671 5672 5672 5673 5673 5674 5674 5675 5676 5676 5677 5678 5678 5679 5680 5681 5682 5683 5684 5685 5686 5687 5688 5689 5690 5691 5692 5694 5695 5696 5696 5697 5698 5698 5699 5700 5702 5703 5704 5705 5706 5707 5707 5708 5709 5709 5710 5711 5711 5712 5713 5714 5714 5715 5715 5715 5716 5716 5717 5717 5717 5717
5658 5658 5659 5659 5660 5661 5661 5662 5662 5663 5663 5663 5664 5666 5667 5667 5668 5668 5669 5670 5671 5672 5672 5673 5674 5674 5675 5676 5677 5678 5679 5680 5681 5682 5683 5683 5684 5685 5686 5687 5689 5690 5691 5691 5692 5693 5694 5695 5696 5697 5698 5699 5701 5701 5702 5702 5703 5703 5704 5704 5705 5706 5706 5707 5707 5708 5708 5709 5709 5710 5710 5711 5711 5711
Wind_Speed
47 49 52 54 52 50 49 45 40 38 36 33 31 32 32 32 32 33 34 34 36 39 38 38 39 39 38 39 38 38 37 37 37 38 38 39 40 41 41 41 41 41 42 42 42 42 41 40 39 38 37 36 35 35 35 35 35 35 34 34 33 30 29 30 29 28 26 26 26 25 25 25 25 25
46 49 52 54 54 53 52 49 43 40 38 34 32 32 33 33 32 33 34 35 37 38 37 37 38 38 38 38 38 37 37 37 36 36 37 37 38 39 39 38 39 39 40 40 41 41 40 39 39 38 37 37 36 36 36 36 36 36 36 36 36 32 30 30 30 29 28 27 26 26 26 27 26 26
44 47 51 53 53 53 53 51 48 43 38 35 32 32 32 33 33 34 35 36 37 37 37 37 36 37 37 37 37 37 37 36 36 36 36 36 36 37 36 36 37 37 37 37 38 38 38 37 37 37 37 37 37 37 36 36 36 36 37 37 37 34 31 30 30 30 29 28 27 27 28 28 27 26
42 44 48 49 49 51 55 55 51 45 39 35 34 33 32 32 34 35 35 35 36 38 37 36 36 36 36 37 37 36 36 35 35 36 36 36 36 36 36 36 36 35 35 34 34 34 35 36 36 36 36 37 37 36 36 37 37 37 37 37 37 35 32 30 30 30 29 28 28 28 29 30 29 27
41 43 46 45 43 46 54 56 52 45 39 37 36 34 33 32 33 34 34 34 36 37 37 35 35 35 35 36 36 36 35 34 34 35 36 37 37 36 36 35 34 33 33 33 32 32 32 33 33 33 33 34 34 35 35 35 35 36 36 36 36 35 32 30 29 29 29 29 29 29 30 31 30 29
42 44 45 44 40 41 46 51 50 45 40 38 38 37 35 33 33 34 35 37 38 37 36 35 35 34 34 34 35 35 35 34 34 34 35 37 37 37 35 33 33 33 32 32 31 31 31 31 31 31 31 31 31 32 33 33 33 33 34 34 34 34 32 31 29 29 29 30 30 31 31 31 31 30
44 45 46 44 40 37 39 43 45 43 39 37 38 39 38 36 35 36 37 38 37 36 36 35 33 32 32 32 33 34 34 34 34 34 35 37 37 36 35 33 33 33 32 32 31 31 31 30 30 30 30 29 29 30 31 31 31 32 32 33 33 33 32 31 30 30 31 31 31 31 31 31 30 30
45 46 47 46 43 40 38 38 39 39 37 35 36 40 42 40 38 37 37 38 37 36 36 33 32 31 30 29 30 31 31 32 33 33 35 36 36 36 35 34 34 34 33 32 31 31 30 30 30 30 30 30 29 29 29 30 30 31 31 31 32 31 31 31 31 31 31 32 32 30 30 30 30 29
47 47 46 46 47 45 42 39 38 38 37 35 37 42 44 43 41 40 39 39 39 39 36 34 32 31 29 28 28 27 27 29 31 32 34 35 35 34 34 34 34 34 34 33 33 32 30 30 30 30 30 30 29 29 29 29 30 30 31 31 31 30 30 31 31 31 31 32 30 29 29 29 29 29
49 49 47 46 48 47 44 41 40 40 38 38 40 43 44 45 44 41 40 41 41 40 37 35 33 30 28 27 26 24 23 24 27 29 32 33 34 34 34 34 34 34 34 34 34 33 31 30 30 30 30 29 29 29 30 30 30 31 32 31 30 30 30 30 29 29 29 29 29 29 30 29 27 27
49 50 48 46 47 46 43 40 40 42 42 42 42 43 43 45 44 42 42 43 43 40 38 35 34 32 29 26 24 24 23 23 24 26 28 28 31 33 34 35 35 34 35 35 34 33 32 31 30 30 30 29 28 27 28 29 30 31 31 31 30 30 29 28 28 27 27 28 29 29 28 25 24 25
47 49 47 46 47 46 42 40 41 42 43 44 44 43 43 44 43 44 44 43 41 39 37 36 34 32 30 28 25 25 25 24 25 25 23 23 27 31 34 35 35 35 35 35 33 32 31 30 30 30 29 29 28 27 26 27 28 29 30 29 29 29 28 27 28 28 28 29 29 27 25 24 24 24
44 46 47 47 48 47 44 42 41 40 41 43 45 44 43 43 43 45 45 43 40 38 37 37 36 33 31 30 28 26 26 26 26 24 21 22 25 28 31 34 35 35 35 34 32 31 30 29 29 29 29 29 29 29 27 26 27 28 28 29 28 28 28 28 28 28 27 27 27 26 24 24 24 24
42 45 47 48 48 49 46 43 41 40 40 42 44 43 43 42 42 44 44 43 41 40 38 38 37 34 31 30 30 28 26 27 26 24 22 23 25 26 29 33 35 34 34 33 31 31 30 29 28 28 29 30 30 29 27 27 27 28 28 28 28 28 28 28 26 26 26 25 25 25 25 25 25 25
39 43 46 47 48 48 46 43 42 41 41 42 44 44 43 42 41 42 43 43 43 41 39 38 37 33 30 31 31 29 28 28 26 22 21 22 25 26 28 32 34 34 33 32 31 31 30 29 28 27 28 29 29 28 26 26 26 26 26 27 27 27 27 26 25 26 26 26 25 26 27 27 27 26
32 37 42 46 47 47 45 43 43 43 43 44 45 46 45 45 44 43 43 45 45 43 41 40 37 33 32 33 33 31 30 28 23 19 19 21 23 25 25 28 32 33 32 31 31 30 30 28 27 27 27 28 28 27 25 24 24 25 25 25 26 26 26 26 26 26 28 28 28 29 29 28 27 27
28 32 37 41 44 45 44 43 43 43 44 45 46 47 47 46 44 42 42 45 46 45 44 41 38 37 36 35 34 34 32 29 23 20 21 22 23 23 23 25 29 32 31 30 30 30 30 29 28 27 27 28 28 27 25 24 24 23 23 23 24 24 25 26 26 27 28 29 29 29 28 27 27 27
26 29 34 38 41 42 44 44 43 42 43 43 45 47 46 45 44 42 42 45 45 44 44 42 40 40 38 36 35 35 34 31 27 25 25 25 25 25 24 24 27 30 31 31 31 31 31 31 29 27 26 27 28 28 27 26 25 23 23 23 23 24 25 26 27 27 27 27 27 26 26 26 26 26
23 24 29 35 39 41 42 43 42 40 40 40 42 44 44 44 44 44 45 47 46 45 45 44 41 40 38 37 36 36 35 33 30 29 28 26 26 27 28 27 27 29 30 31 32 32 31 31 30 28 27 27 28 29 28 27 26 26 25 25 26 27 27 27 27 26 26 26 26 26 26 26 26 27
23 23 25 30 33 36 38 40 40 39 39 39 40 41 42 44 46 46 47 49 48 48 47 45 42 39 37 36 36 34 33 32 31 29 26 23 24 26 29 29 29 29 29 30 31 30 30 30 31 29 28 29 29 29 28 28 28 28 28 28 28 28 28 28 27 27 26 27 27 27 28 28 28 28
21 22 24 26 27 29 32 35 38 39 40 40 41 42 43 45 48 48 48 49 50 50 49 46 43 39 36 35 34 33 31 30 30 28 24 23 24 26 29 29 27 27 28 29 29 29 28 27 28 29 29 29 29 28 28 28 29 29 29 28 28 28 28 28 28 27 27 28 28 28 28 28 28 28
17 18 20 23 25 24 25 29 34 37 38 39 41 43 43 44 46 48 49 51 50 49 49 47 43 39 37 35 33 31 29 28 28 28 27 26 25 26 28 28 26 27 28 29 28 27 25 24 25 27 28 28 28 27 27 28 28 28 29 28 28 29 29 29 28 28 28 28 29 29 28 28 28 28
12 17 19 20 21 22 23 26 31 33 35 38 41 41 41 42 45 47 50 52 50 49 49 46 41 38 37 35 33 30 28 27 27 27 27 28 29 30 31 31 30 29 29 28 27 25 25 25 25 25 25 25 26 26 27 26 26 26 26 26 27 28 29 29 29 29 29 29 29 29 28 28 28 28
17 20 22 21 22 25 27 30 32 34 37 41 43 43 44 46 47 47 49 50 49 49 47 42 38 37 35 34 33 30 27 26 26 26 28 31 34 34 34 34 32 29 27 27 26 26 26 27 26 25 25 25 26 26 26 26 26 25 25 25 26 27 28 29 30 30 30 30 29 29 28 28 29 29
24 25 27 27 29 31 32 33 35 37 39 41 44 46 49 50 47 45 46 46 46 46 42 36 34 35 34 34 32 30 27 27 27 28 29 30 32 32 32 32 30 28 27 27 27 27 27 27 27 28 28 27 27 27 28 28 27 27 27 27 27 28 28 29 30 30 31 30 30 30 29 29 30 30
22 24 25 28 30 32 33 34 36 38 39 41 44 47 51 51 45 43 44 43 41 40 37 34 34 34 33 33 32 30 29 29 29 28 26 24 24 25 27 28 27 25 26 25 25 28 29 28 29 31 30 29 29 29 29 29 29 28 27 27 27 28 29 29 30 30 30 30 30 30 29 29 29 29
20 22 22 25 28 31 32 31 30 30 32 35 39 42 47 48 46 44 42 39 38 38 35 34 34 33 33 34 33 32 31 30 31 29 23 20 21 21 23 25 25 24 25 23 23 28 31 30 29 28 29 29 29 29 29 28 27 27 26 25 25 25 26 27 28 28 28 28 28 28 28 28 28 28
18 19 21 23 25 27 29 29 27 26 27 29 32 36 40 43 47 47 42 35 34 36 36 35 34 34 35 35 35 34 34 33 33 31 26 23 23 23 24 26 27 27 26 25 26 29 31 30 28 26 26 27 28 29 29 27 26 26 24 23 23 23 24 25 26 26 26 26 27 28 28 28 27 27
16 17 19 20 20 20 22 23 24 24 26 27 30 32 35 38 42 45 40 32 30 33 35 35 34 35 36 37 37 37 37 37 37 35 31 28 27 26 27 29 31 30 29 27 28 29 30 29 29 27 26 25 26 28 29 27 26 26 25 24 24 24 24 26 26 27 27 27 28 28 28 28 27 27
13 14 16 17 16 15 15 16 17 19 20 23 26 29 33 35 35 36 34 32 32 35 35 35 35 34 35 37 38 38 39 39 39 37 34 31 29 28 28 30 33 33 32 31 30 30 30 30 28 27 27 27 27 29 29 28 28 27 26 25 25 25 26 28 28 29 29 29 29 29 29 29 29 29
14 14 14 14 14 14 14 13 13 14 16 18 21 24 28 32 33 31 31 32 34 36 37 38 37 36 35 35 36 37 37 38 38 36 33 31 30 29 29 31 33 34 34 33 32 29 28 28 27 27 28 28 29 30 30 30 30 29 28 28 28 28 29 30 31 31 31 30 30 30 30 30 29 29
19 19 17 17 18 19 19 17 16 15 15 16 18 21 24 27 30 32 33 34 35 36 37 38 38 36 35 35 35 36 36 37 37 35 33 32 32 33 33 32 32 33 34 34 32 30 29 28 28 28 29 30 31 32 32 32 32 32 32 32 32 32 33 33 33 33 32 31 31 31 31 31 30 30
20 21 21 21 22 22 22 23 22 20 19 19 20 21 23 25 28 30 32 34 34 33 33 34 34 34 34 34 35 35 35 36 37 36 36 35 35 35 35 35 34 35 35 35 34 34 34 33 33 33 33 33 34 34 34 35 35 36 36 37 36 36 35 35 35 34 33 32 32 31 31 31 31 31
17 20 21 22 22 21 21 23 24 24 24 24 24 25 26 27 28 30 31 33 34 33 33 33 34 34 34 35 36 36 35 36 36 37 39 40 39 38 37 37 37 37 37 36 36 36 36 36 35 36 36 37 37 38 39 39 39 40 40 39 38 37 36 35 34 34 34 33 32 32 31 32 33 33
12 15 16 17 18 18 18 19 21 23 25 25 24 23 25 29 31 32 33 34 35 36 36 37 37 37 37 38 38 37 37 38 38 38 39 42 43 42 42 41 40 40 39 39 39 39 38 37 38 39 40 40 41 42 42 42 42 42 42 40 39 37 36 35 35 34 35 34 34 33 32 32 33 33
11 12 13 13 13 14 14 14 15 17 19 20 20 19 19 22 25 28 30 31 33 34 35 36 37 38 38 39 38 38 38 39 40 40 39 40 41 43 43 43 42 41 42 43 43 42 40 40 41 42 42 43 43 43 43 42 42 41 40 38 37 36 36 35 35 35 35 35 34 33 31 31 31 32
12 13 13 13 13 14 13 13 13 13 13 14 16 16 16 16 18 20 21 23 24 26 27 28 29 30 31 32 33 33 34 36 38 40 40 41 41 42 43 43 42 42 42 42 41 40 39 38 38 39 39 39 39 39 38 37 37 36 36 35 36 36 36 36 35 35 34 33 33 32 31 31 31 32
15 15 16 16 16 17 17 16 15 15 15 15 15 15 16 17 18 20 21 21 22 22 22 23 23 24 25 26 26 27 28 29 31 33 34 35 36 37 37 37 37 36 36 35 35 34 34 34 34 34 34 33 33 32 32 33 33 34 35 35 35 35 35 34 34 33 33 33 33 33 33 33 33 33
18 18 18 19 19 20 20 20 19 19 19 19 19 19 20 21 22 23 23 23 23 23 24 24 24 25 25 25 25 25 25 25 26 26 26 27 28 29 30 30 31 31 31 32 32 32 32 32 31 31 31 30 30 30 31 32 33 33 34 34 34 33 33 33 33 33 34 34 35 35 35 35 36 35
20 20 21 22 22 22 23 23 23 23 23 23 23 24 25 26 26 25 25 24 25 26 27 27 28 28 28 27 27 26 26 26 26 25 25 26 27 27 28 28 29 29 30 31 31 31 31 30 30 30 30 30 30 30 31 32 32 33 32 33 33 33 34 34 35 36 36 37 36 36 36 36 36 36
23 23 24 24 24 24 24 25 25 26 26 26 26 27 28 29 29 29 28 28 29 29 30 30 30 30 30 29 29 29 29 28 28 28 28 28 29 29 30 30 31 31 32 33 33 32 32 31 31 31 32 32 32 32 33 33 33 33 34 34 35 36 36 37 38 38 38 37 37 37 36 36 36 36
25 25 26 26 26 26 26 26 27 28 28 29 29 29 29 30 30 30 31 31 32 33 33 33 33 33 33 33 33 33 33 32 32 32 32 32 32 33 33 33 34 34 34 35 35 35 34 34 34 34 34 34 34 34 34 35 35 36 36 37 37 38 38 39 38 38 37 37 37 37 37 37 37 37
27 27 28 28 28 28 28 27 28 28 29 30 30 30 30 30 30 30 31 32 33 34 35 35 36 36 36 36 35 35 35 35 34 34 34 34 34 34 34 35 35 35 36 36 37 37 36 36 36 35 36 36 36 36 36 36 37 38 38 39 39 39 39 39 39 38 38 38 38 38 38 38 38 38
27 28 29 30 30 30 30 30 30 30 31 30 30 30 31 31 31 31 32 32 33 34 35 36 37 37 37 37 37 37 37 37 36 36 35 36 36 36 35 35 35 36 36 37 38 38 38 38 38 38 38 38 38 38 38 38 38 38 39 39 40 40 40 40 39 39 39 39 39 39 39 39 39 39
25 26 28 29 31 32 33 33 33 33 33 33 32 32 32 32 32 33 33 33 33 34 35 36 37 38 38 38 39 38 38 38 37 37 37 36 36 36 36 36 37 37 37 38 39 39 39 40 40 40 40 39 39 39 39 39 39 39 39 39 40 40 40 41 41 41 41 41 41 41 41 41 41 40
Wind_Direction
238 232 229 227 227 229 230 227 227 229 228 228 233 238 236 231 230 231 232 231 232 233 233 233 234 235 236 238 239 239 240 240 240 240 240 241 242 243 244 245 246 248 249 249 249 249 249 249 249 249 249 249 250 252 255 258 260 261 262 262 261 260 260 264 267 269 270 271 272 274 275 275 275 274
238 233 229 226 226 228 228 228 228 229 228 226 230 236 236 231 228 230 232 233 234 235 235 235 235 235 236 237 239 240 240 241 240 240 240 239 240 241 242 244 246 248 249 250 250 249 249 249 251 252 252 252 253 253 254 256 258 259 261 262 263 262 261 263 266 268 269 269 270 272 273 274 274 273
238 233 228 224 223 225 225 225 227 228 226 224 226 232 234 231 228 229 231 232 235 237 237 238 238 238 238 237 238 239 240 240 241 240 239 238 238 239 242 244 245 247 248 249 249 250 250 250 251 253 254 254 254 254 254 254 255 256 257 259 262 263 263 263 265 267 269 269 270 271 272 272 273 273
238 234 228 223 222 224 223 222 225 226 225 223 223 228 232 231 228 228 228 230 235 238 238 239 241 242 242 240 238 238 238 239 240 241 240 239 238 240 242 244 245 246 248 248 248 249 249 250 251 252 253 254 254 254 253 252 252 253 254 256 260 263 264 263 264 266 268 269 269 269 270 271 274 274
240 235 229 224 222 223 222 222 223 225 224 223 223 225 230 231 229 228 226 226 233 238 239 239 241 243 244 243 241 239 239 239 239 240 241 241 241 242 244 246 246 246 246 246 248 249 250 251 252 253 253 253 252 252 251 250 250 251 253 255 258 262 263 264 265 266 267 267 268 268 268 270 272 273
239 236 230 225 225 226 224 221 221 222 223 225 225 225 229 232 231 228 225 225 230 236 238 238 239 242 242 242 241 240 240 240 239 239 240 242 243 244 247 249 249 247 246 246 248 249 251 252 253 254 254 253 252 251 250 250 250 251 253 255 258 261 263 265 266 266 266 266 267 269 270 270 271 272
235 234 230 226 226 226 221 217 217 218 220 225 226 226 229 232 232 229 226 227 229 235 239 238 238 239 238 237 239 239 240 241 241 240 240 241 243 244 246 248 249 249 249 249 249 248 250 251 253 253 254 253 252 251 251 251 252 252 254 255 257 259 261 263 264 264 265 266 267 268 268 269 270 271
232 232 230 228 226 224 219 217 218 219 221 224 225 226 227 231 232 229 227 227 229 233 237 238 237 237 235 234 236 238 240 242 243 243 243 243 244 245 246 247 247 248 248 249 249 249 249 250 252 253 253 253 253 252 252 252 253 253 253 253 254 256 258 259 260 262 264 266 267 266 265 267 269 269
232 231 231 231 230 228 225 223 224 225 225 226 225 225 226 229 230 227 226 227 228 228 230 233 236 236 233 232 233 236 240 242 243 243 244 245 246 246 247 248 249 248 247 247 248 249 250 250 251 252 252 252 252 252 252 252 252 252 251 251 252 254 255 257 259 262 264 266 267 266 266 267 268 267
231 231 232 233 231 230 230 228 227 228 229 228 227 226 227 228 227 226 225 226 226 225 226 230 236 239 236 232 234 240 245 246 244 241 241 243 245 245 246 248 249 249 247 246 246 248 250 250 250 250 250 250 251 251 251 251 251 250 249 249 250 251 253 256 259 261 263 264 265 265 265 265 265 265
231 232 232 232 229 228 230 232 231 231 231 231 231 230 229 228 226 225 226 225 225 227 228 231 236 241 240 237 239 247 251 251 250 245 243 245 245 244 244 246 247 247 247 246 246 248 249 250 250 250 249 249 250 250 251 251 250 250 249 248 249 250 253 256 258 258 259 261 262 262 261 262 263 264
231 230 229 229 228 227 228 232 234 233 231 232 233 232 229 226 224 225 226 224 226 230 231 232 235 240 243 241 243 248 249 250 251 248 247 251 250 246 244 245 246 246 246 245 246 247 249 251 251 251 249 248 249 250 251 251 251 249 248 248 248 250 253 256 257 258 259 260 261 258 257 259 261 262
230 228 226 226 227 228 228 230 233 234 232 232 233 232 229 226 224 226 226 224 226 230 231 232 236 240 241 243 246 247 246 247 249 248 249 254 255 252 248 246 246 246 245 244 243 244 247 249 250 250 248 248 249 250 250 250 250 249 248 248 248 250 253 256 257 258 257 255 255 256 257 259 261 261
229 226 225 225 226 227 229 230 232 235 233 232 233 232 229 227 225 225 227 226 226 228 230 232 237 239 238 241 246 247 245 245 247 247 250 256 258 258 252 246 244 245 245 243 242 241 243 246 249 248 247 247 249 250 250 250 250 249 248 248 251 253 255 256 256 255 253 251 253 256 257 259 262 264
231 226 224 224 225 227 229 230 232 234 233 231 232 232 231 228 225 226 229 229 228 228 230 233 236 237 235 239 245 246 242 242 244 247 254 259 259 257 251 243 242 244 245 244 242 241 241 244 246 246 245 245 247 248 248 248 249 249 249 252 254 254 253 253 253 253 254 255 256 258 260 262 264 266
234 228 225 224 225 227 229 229 229 231 231 231 232 234 233 230 228 230 231 231 230 230 232 234 235 234 235 239 242 243 240 239 242 249 256 259 258 252 244 239 240 243 243 242 242 242 242 243 245 245 244 243 244 243 243 246 249 252 253 254 254 253 252 254 254 254 255 256 258 260 263 264 264 263
237 231 226 225 226 226 226 225 226 228 230 230 231 233 233 232 231 233 233 232 232 232 233 234 234 234 237 240 241 241 241 240 244 253 259 259 253 243 236 235 239 241 241 241 242 244 245 245 245 246 244 243 243 241 242 247 253 255 254 252 251 252 253 254 255 255 256 257 259 261 263 262 262 261
238 234 229 226 226 225 224 224 224 226 229 231 231 231 232 232 232 232 232 232 232 233 233 234 233 235 237 239 240 240 241 243 248 255 260 259 249 239 235 236 237 238 239 239 241 243 245 245 245 245 244 243 243 243 243 246 249 250 251 251 251 251 253 254 256 257 258 260 261 262 262 261 260 260
237 237 234 230 227 225 224 224 223 225 228 230 230 231 231 231 232 232 231 230 230 230 231 232 233 234 236 239 241 240 240 244 250 257 262 261 251 240 238 238 237 237 238 238 240 242 243 243 243 243 243 243 242 241 242 243 243 245 248 252 254 255 257 257 258 259 259 260 260 260 260 260 260 261
235 235 236 235 232 228 225 224 223 224 226 226 227 229 229 230 232 231 230 228 227 227 228 229 231 233 235 237 240 240 240 243 249 254 256 257 251 243 239 237 235 235 237 238 241 243 242 241 241 240 241 242 241 240 240 241 243 245 249 253 255 257 258 259 259 259 259 259 260 260 261 261 261 262
235 231 230 231 231 230 227 223 223 224 225 226 226 227 230 233 234 233 230 226 224 224 226 228 230 231 232 235 237 238 238 239 244 246 244 246 248 243 238 235 233 234 237 239 241 242 241 242 241 239 239 241 241 240 240 241 243 246 249 253 255 258 259 259 258 257 257 258 259 260 261 262 262 262
243 236 230 228 226 228 227 224 224 224 222 222 225 226 228 231 232 231 227 222 220 221 224 227 229 228 229 232 236 237 237 237 241 243 241 242 244 238 233 235 239 240 241 241 242 240 236 235 237 237 237 239 240 240 241 243 245 247 250 253 255 257 258 258 257 257 258 259 261 262 263 263 262 262
235 233 232 232 224 218 217 215 217 217 213 214 220 222 222 222 222 222 220 218 217 218 222 226 228 227 228 232 235 237 238 239 242 245 243 241 241 239 239 246 251 248 244 241 239 235 229 228 231 233 234 236 239 241 243 245 246 247 249 252 254 256 257 258 258 259 260 261 262 262 262 262 262 262
180 203 209 211 203 201 208 213 215 215 213 216 220 221 217 216 216 216 214 213 214 216 220 225 227 228 229 232 234 236 238 240 242 246 246 244 244 245 247 251 252 247 241 237 234 231 227 227 230 232 234 237 240 242 243 245 246 249 252 255 257 258 258 258 259 260 262 262 262 261 261 261 261 261
183 191 191 193 196 198 204 209 213 217 220 223 225 223 218 216 218 217 214 211 213 216 220 225 227 229 232 234 235 235 234 236 240 241 240 241 243 244 244 244 242 238 233 232 232 231 229 230 233 234 235 239 242 244 246 247 250 255 258 260 260 259 258 258 260 262 263 262 262 262 262 261 261 260
205 200 192 195 201 204 203 206 210 215 219 222 223 222 218 216 218 219 215 212 214 217 223 228 230 232 236 237 237 235 231 233 237 235 232 236 241 241 238 233 229 228 228 228 232 234 230 229 234 237 238 241 245 246 248 250 253 255 257 258 257 256 256 257 259 260 261 261 261 262 262 261 261 261
217 215 210 207 209 211 212 213 215 215 217 219 220 220 218 217 219 219 217 219 223 226 228 233 235 238 240 240 239 234 230 231 232 229 230 239 244 241 236 227 221 221 223 222 230 236 232 228 232 237 239 241 244 245 247 250 252 251 250 250 251 251 252 254 255 256 258 259 260 261 261 261 260 261
218 222 222 220 219 219 220 222 221 217 215 216 217 218 219 220 222 223 221 222 228 232 233 235 238 240 242 242 239 233 228 228 228 228 234 244 246 242 237 230 223 221 220 219 225 231 232 229 229 233 236 239 242 245 247 249 248 245 243 245 249 251 252 253 254 256 257 258 258 259 259 259 260 261
215 218 221 223 224 222 222 225 225 222 220 219 218 218 218 218 220 220 217 215 221 229 234 237 239 241 242 240 238 234 231 230 231 234 239 244 245 244 240 234 229 226 225 225 227 228 230 231 231 233 236 239 243 247 247 245 243 241 243 249 253 255 256 257 257 258 257 257 257 257 257 257 259 260
212 213 216 220 224 225 226 229 229 227 227 226 224 223 222 221 219 217 215 217 222 229 235 237 238 238 238 237 236 234 233 234 237 240 243 244 245 244 241 237 233 229 229 232 233 233 234 234 232 232 235 238 242 245 243 240 240 243 248 254 257 258 259 259 260 261 260 259 258 257 257 258 259 260
226 224 217 216 225 232 236 239 240 238 237 233 230 227 224 223 221 217 215 219 224 228 231 232 232 232 233 234 235 235 235 237 240 242 243 242 242 240 238 237 235 230 229 232 234 235 236 236 233 232 234 236 241 243 242 241 243 246 250 253 255 256 256 257 259 260 260 259 257 256 256 256 257 258
226 234 232 227 228 229 229 229 230 232 236 238 237 233 229 226 224 221 219 221 224 226 228 229 230 231 233 234 234 235 237 239 241 241 238 237 237 236 234 234 234 232 232 234 236 238 241 242 241 240 240 240 241 241 241 242 245 248 250 252 253 253 253 253 255 256 256 256 255 254 255 255 255 257
214 222 225 224 222 220 217 215 212 212 218 224 229 231 231 231 230 228 226 224 224 226 230 233 234 235 237 237 237 238 239 240 241 239 233 231 234 235 234 234 234 235 237 240 243 245 247 246 244 243 243 242 242 242 243 244 246 248 250 252 253 253 253 253 254 255 254 253 252 252 254 255 256 257
213 215 215 214 212 208 205 203 201 202 207 213 218 222 225 226 227 229 228 226 224 224 227 231 234 237 238 240 241 242 242 240 239 235 231 229 231 233 234 236 239 241 244 246 247 246 246 244 241 241 242 242 242 242 243 245 247 249 250 250 251 252 252 252 253 254 255 255 254 253 254 255 257 258
220 221 220 218 216 212 208 206 205 207 209 211 213 216 220 223 224 226 228 228 227 226 226 228 232 235 238 239 240 241 240 237 235 234 231 230 232 234 236 239 243 245 246 245 245 244 243 241 241 242 243 243 243 243 244 244 245 247 248 248 248 247 248 249 251 253 256 257 258 258 258 259 259 259
229 228 228 228 227 224 221 219 216 215 216 214 210 208 212 218 221 223 225 227 228 229 229 230 233 236 238 240 240 239 238 236 236 236 236 235 235 236 238 240 241 241 242 243 242 242 242 241 241 242 243 243 243 243 244 244 244 244 244 245 244 244 246 248 250 253 255 257 258 260 260 260 260 259
240 236 235 236 236 234 232 229 227 226 228 227 222 214 210 211 213 215 218 220 223 226 227 228 230 232 234 236 236 235 234 234 235 236 237 236 235 235 236 238 238 239 241 241 241 240 239 239 238 239 239 239 239 239 241 241 242 241 242 242 243 244 245 247 248 250 252 254 255 257 258 259 259 260
254 248 243 241 240 240 239 236 233 231 232 235 236 232 227 223 219 219 219 220 222 226 227 229 230 231 230 231 231 231 231 232 233 233 233 232 232 231 232 232 233 234 236 236 236 236 235 234 233 233 234 234 234 235 236 238 239 240 242 243 244 245 246 247 248 248 250 252 253 255 257 259 260 262
265 261 256 250 246 244 244 243 241 238 236 235 236 237 237 235 231 229 228 228 229 231 232 234 235 235 235 235 235 234 235 235 235 235 233 231 230 229 228 228 229 230 231 232 232 232 232 232 232 232 233 234 234 234 235 237 238 240 242 244 246 246 247 248 249 250 251 253 255 257 259 261 262 264
264 263 261 258 254 251 250 249 247 245 242 240 238 237 238 239 238 237 236 235 235 234 234 235 235 236 238 238 238 238 238 238 237 236 235 234 233 232 231 230 230 230 231 232 232 232 232 234 235 235 236 237 237 238 239 241 242 243 244 246 249 250 251 252 252 253 254 255 257 259 260 262 263 264
267 265 263 262 260 257 255 254 252 250 248 246 244 243 242 243 243 242 240 239 239 238 238 238 238 238 239 240 240 240 239 238 238 237 237 236 236 236 235 235 235 235 236 237 237 237 237 238 240 241 242 243 243 244 246 247 248 249 250 250 251 252 253 254 255 257 258 259 261 262 262 263 265 266
263 265 265 265 264 263 261 258 256 254 252 251 250 250 249 248 248 246 244 242 242 241 241 241 241 241 240 240 240 240 240 239 239 238 238 238 238 238 238 239 239 240 240 241 242 242 242 242 244 245 246 247 248 249 250 251 252 253 253 253 253 253 254 255 257 258 260 261 262 263 264 266 268 270
256 257 258 260 262 263 263 263 261 259 256 254 254 255 255 254 253 251 249 247 245 244 242 241 240 240 241 240 240 240 240 240 240 240 240 240 240 240 241 241 242 243 244 245 245 245 245 246 246 247 249 250 250 251 251 252 252 253 253 254 255 255 255 256 257 258 259 260 262 264 266 268 270 271
257 256 255 255 256 257 258 259 260 260 259 257 255 255 256 256 256 255 253 252 250 249 247 245 243 242 241 241 241 241 241 241 242 242 242 243 243 244 244 243 244 245 246 247 248 248 248 248 248 248 249 250 251 251 251 251 252 253 254 255 256 256 257 258 259 260 260 261 262 264 266 268 269 271
260 259 258 257 256 256 255 255 255 256 258 258 257 255 253 254 254 254 253 252 251 250 249 249 249 248 247 246 245 245 244 244 244 244 245 245 246 247 247 247 246 246 247 248 249 250 250 250 250 250 250 250 250 251 252 253 254 255 256 257 258 259 260 261 261 262 262 263 264 265 266 267 268 270